Tracking 18630 objects as of 25-May-2017
HD Live streaming from Space Station
objects crossing your sky now

COSMOS 1922

Track COSMOS 1922 now!
COSMOS 1922 is classified as:


NORAD ID: 18881
Int'l Code: 1988-013A
Perigee: 5,446.2 km
Apogee: 35,032.2 km
Inclination: 68.8 °
Period: 720.0 minutes
Semi major axis: 26610 km
RCS: 12.0457 m2 (large)
Launch date: February 26, 1988
Source: Commonwealth of Independent States (former USSR) (CIS)
Launch site: PLESETSK MISSILE AND SPACE COMPLEX (PKMTR)
Your satellite tracking list
Your tracking list is empty





NASA's NSSDC Master Catalog

Two Line Element Set (TLE):
1 18881U 88013A   17144.51924310 -.00000599 +00000-0 +00000-0 0  9992
2 18881 068.8401 232.8418 5559147 130.1113 293.6825 02.00628351214132
Source of the keplerian elements: AFSPC